CAPE
0 0 0 0 0 0 0 0 0 0 0 0 0 0 0 0 0 0 0 0 0 0 0 0 0 0 0 0 0 0 0 0 0 0 0 0 0 0 0 0 0 0 0 0
0 0 0 0 0 0 0 0 0 0 0 0 0 0 0 0 0 0 0 0 0 0 0 0 0 0 0 0 0 0 0 0 0 0 0 0 0 0 0 0 0 0 0 0
0 0 0 0 0 0 0 0 0 0 0 0 0 0 0 0 0 0 0 0 0 0 0 0 0 0 0 0 0 0 0 0 0 0 0 0 0 0 0 0 0 0 0 0
0 0 0 0 0 0 0 0 0 0 0 0 0 0 0 0 0 0 0 0 0 0 0 0 0 0 0 0 0 0 0 0 0 0 0 0 0 0 0 0 0 0 0 0
0 0 0 0 0 0 0 0 0 0 0 0 0 0 0 0 0 0 0 0 0 0 0 0 0 0 0 0 0 0 0 0 0 0 0 0 0 0 0 0 0 0 0 0
0 0 0 0 0 0 2 0 0 0 0 0 0 0 0 0 0 0 0 0 0 0 0 0 0 0 0 0 0 0 0 0 0 0 0 0 0 0 0 0 0 0 0 0
0 0 0 0 0 0 0 0 0 0 0 0 0 0 0 0 0 0 0 0 0 0 0 0 0 0 0 0 0 0 0 0 0 0 0 0 0 0 0 0 0 0 0 0
0 0 2 0 0 0 1 1 0 0 0 0 0 0 0 0 0 0 0 0 0 0 0 0 0 0 0 0 0 0 0 0 0 0 0 0 0 0 0 0 0 0 0 0
0 0 1 0 0 0 0 0 1 0 0 0 0 0 0 0 0 0 0 0 0 0 0 0 0 0 0 0 0 0 0 0 0 0 0 0 0 0 0 0 0 0 0 0
0 0 1 2 0 0 0 0 1 0 2 0 0 0 0 0 0 0 0 0 0 0 0 0 0 0 0 0 0 0 0 0 0 0 0 0 0 0 0 0 0 0 0 0
1 0 0 2 0 0 0 0 6 0 4 0 0 0 0 0 0 0 0 0 0 0 0 0 0 0 0 0 0 0 0 0 0 0 0 0 0 0 0 0 0 0 0 0
1 0 4 7 3 5 2 0 0 2 0 0 0 0 0 0 0 0 0 0 0 0 0 0 0 0 0 0 0 0 0 0 0 0 0 0 0 0 0 0 0 0 0 0
2 1 4 11 9 7 2 0 10 7 9 2 1 0 0 0 0 0 0 0 0 0 0 0 0 0 0 0 0 0 0 0 0 0 0 0 0 0 0 0 0 0 0 0
6 3 7 10 11 11 6 0 6 0 3 0 0 0 1 0 0 0 0 0 0 0 0 0 0 0 0 0 0 0 0 0 0 0 0 0 0 0 0 0 0 0 0 0
8 7 7 7 20 24 4 0 0 0 0 1 1 0 0 0 0 0 0 0 0 0 0 0 0 0 0 0 0 0 0 0 0 0 0 0 0 0 0 0 0 0 0 0
7 7 7 7 27 2 0 0 0 0 0 0 0 0 0 0 0 0 0 0 0 0 0 0 0 0 0 0 0 0 0 0 0 0 0 0 0 0 0 0 0 0 0 0
6 5 6 13 7 0 0 0 0 0 0 4 0 0 0 0 0 0 0 0 0 0 0 0 0 0 0 0 0 0 0 0 0 0 0 0 0 0 0 0 0 0 0 0
6 6 8 8 1 0 1 10 4 17 36 24 0 0 0 0 0 0 0 0 0 0 0 0 3 5 0 0 0 0 0 0 0 0 0 0 0 0 0 0 0 0 0 0
6 10 5 2 1 1 2 10 18 0 2 0 0 0 0 0 0 0 0 0 0 0 0 0 0 3 1 0 0 0 0 0 0 0 0 0 0 0 0 0 0 0 0 0
3 0 0 0 1 23 1 0 14 11 1 1 3 0 0 0 0 1 0 0 0 0 0 0 0 2 0 0 0 0 0 0 0 0 0 0 0 0 0 0 0 0 0 0
0 0 0 1 28 0 0 0 0 0 0 0 0 0 0 0 0 1 0 0 0 0 0 0 2 0 0 0 0 0 0 0 0 0 0 0 0 0 0 0 0 0 0 0
0 0 1 0 0 0 0 0 0 0 0 1 0 0 0 0 0 0 0 0 1 0 1 1 0 0 0 0 0 0 0 0 0 0 0 0 0 0 0 0 0 0 0 0
0 0 0 0 0 0 0 0 1 0 0 0 0 0 0 0 0 0 0 0 0 1 1 1 0 0 0 0 0 0 0 0 0 0 0 0 0 0 0 0 0 0 0 0
0 0 0 0 0 0 0 0 0 0 0 0 2 0 0 1 0 1 0 0 0 1 0 0 0 0 0 0 0 0 0 0 0 0 0 0 1 1 0 0 0 0 0 0
1 0 0 0 0 0 0 0 0 0 0 0 6 0 0 0 0 0 0 0 0 0 0 0 0 0 0 0 0 0 0 0 0 0 0 0 0 0 0 0 0 0 0 0
0 0 0 0 0 0 0 0 0 0 2 6 2 0 0 0 0 1 0 0 0 0 0 0 0 0 0 0 0 0 0 0 0 0 0 0 0 0 0 0 0 0 0 0
0 0 0 0 0 0 0 0 0 2 4 1 0 0 0 0 1 0 0 0 0 0 0 0 0 0 0 0 0 0 0 0 0 0 0 0 0 0 0 3 0 0 0 0
CIN
-0 -0 -0 -0 -0 -0 -0 -0 -0 -0 -0 -0 -0 -0 -0 -0 -0 -0 -0 -0 -0 -0 -0 -0 -0 -0 -0 -0 -0 -0 -0 -0 -0 -0 -0 -0 -0 -0 -0 -0 -0 -0 -0 -0
-0 -0 -0 -0 -0 -0 -0 -0 -0 -0 -0 -0 -0 -0 -0 -0 -0 -0 -0 -0 -0 -0 -0 -0 -0 -0 -0 -0 -0 -0 -0 -0 -0 -0 -0 -0 -0 -0 -0 -0 -0 -0 -0 -0
-0 -0 -0 -0 -0 -0 -0 -0 -0 -0 -0 -0 -0 -0 -0 -0 -0 -0 -0 -0 -0 -0 -0 -0 -0 -0 -0 -0 -0 -0 -0 -0 -0 -0 -0 -0 -0 -0 -0 -0 -0 -0 -0 -0
-0 -0 -0 -0 -0 -0 -0 -0 -0 -0 -0 -0 -0 -0 -0 -0 -0 -0 -0 -0 -0 -0 -0 -0 -0 -0 -0 -0 -0 -0 -0 -0 -0 -0 -0 -0 -0 -0 -0 -0 -0 -0 -0 -0
-0 -0 -0 -0 -0 -0 -0 -0 -0 -0 -0 -0 -0 -0 -0 -0 -0 -0 -0 -0 -0 -0 -0 -0 -0 -0 -0 -0 -0 -0 -0 -0 -0 -0 -0 -0 -0 -0 -0 -0 -0 -0 -0 -0
-0 -0 -0 -0 -0 -0 -0 -0 -0 -0 -0 -0 -0 -0 -0 -0 -0 -0 -0 -0 -0 -0 -0 -0 -0 -0 -0 -0 -0 -0 -0 -0 -0 -0 -0 -0 -0 -0 -0 -0 -0 -0 -0 -0
-0 -0 -0 -0 -0 -0 -0 -0 -0 -0 -0 -0 -0 -0 -0 -0 -0 -0 -0 -0 -0 -0 -0 -0 -0 -0 -0 -0 -0 -0 -0 -0 -0 -0 -0 -0 -0 -0 -0 -0 -0 -0 -0 -0
-0 -0 -0 -0 -0 -0 -0 -0 -0 -0 -0 -0 -0 -0 -0 -0 -0 -0 -0 -0 -0 -0 -0 -0 -0 -0 -0 -0 -0 -0 -0 -0 -0 -0 -0 -0 -0 -0 -0 -0 -0 -0 -0 -0
-0 -0 -0 -0 -0 -0 -0 -0 -0 -0 -0 -0 -0 -0 -0 -0 -0 -0 -0 -0 -0 -0 -0 -0 -0 -0 -0 -0 -0 -0 -0 -0 -0 -0 -0 -0 -0 -0 -0 -0 -0 -0 -0 -0
-0 -0 -0 -0 -0 -0 -0 -0 -0 -0 -0 -0 -0 -0 -0 -0 -0 -0 -0 -0 -0 -0 -0 -0 -0 -0 -0 -0 -0 -0 -0 -0 -0 -0 -0 -0 -0 -0 -0 -0 -0 -0 -0 -0
-0 -0 -0 -0 -0 -0 -0 -0 -0 -0 -0 -0 -0 -0 -0 -0 -0 -0 -0 -0 -0 -0 -0 -0 -0 -0 -0 -0 -0 -0 -0 -0 -0 -0 -0 -0 -0 -0 -0 -0 -0 -0 -0 -0
-0 -0 -0 -0 -0 -0 -0 -0 -0 -0 -4 -0 -0 -0 -0 -0 -0 -0 -0 -0 -0 -0 -0 -0 -0 -0 -0 -0 -0 -0 -0 -0 -0 -0 -0 -0 -0 -0 -0 -0 -0 -0 -0 -0
-0 -0 -0 -0 -0 -0 -0 -0 -0 -0 -0 -0 -0 -0 -0 -0 -0 -0 -0 -0 -0 -0 -0 -0 -0 -0 -0 -0 -0 -0 -0 -0 -0 -0 -0 -0 -0 -0 -0 -0 -0 -0 -0 -0
-0 -0 -0 -0 -0 -0 -0 -0 -0 -0 -0 -0 -0 -0 -0 -0 -0 -0 -0 -0 -0 -0 -0 -0 -0 -0 -0 -0 -0 -0 -0 -0 -0 -0 -0 -0 -0 -0 -0 -0 -0 -0 -0 -0
-0 -0 -0 -0 -0 -0 -0 -0 -0 -0 -0 -0 -0 -0 -0 -0 -0 -0 -0 -0 -0 -0 -0 -0 -0 -0 -0 -0 -0 -0 -0 -0 -0 -0 -0 -0 -0 -0 -0 -0 -0 -0 -0 -0
-0 -0 -0 -0 -0 -1 -0 -0 -0 -0 -0 -0 -0 -0 -0 -0 -0 -0 -0 -0 -0 -0 -0 -0 -0 -0 -0 -0 -0 -0 -0 -0 -0 -0 -0 -0 -0 -0 -0 -0 -0 -0 -0 -0
-0 -0 -0 -0 -0 -0 -0 -0 -0 -0 -0 -7 -0 -0 -0 -0 -0 -0 -0 -0 -0 -0 -0 -0 -0 -0 -0 -0 -0 -0 -0 -0 -0 -0 -0 -0 -0 -0 -0 -0 -0 -0 -0 -0
-0 -0 -0 -0 -0 -0 -0 -0 -2 -0 -3 -4 -0 -0 -0 -0 -0 -0 -0 -0 -0 -0 -0 -0 -8 -1 -0 -0 -0 -0 -0 -0 -0 -0 -0 -0 -0 -0 -0 -0 -0 -0 -0 -0
-0 -0 -0 -0 -0 -0 -0 -1 -11 -11 -1 -0 -0 -0 -0 -0 -0 -0 -0 -0 -0 -0 -0 -0 -0 -3 -3 -0 -0 -0 -0 -0 -0 -0 -0 -0 -0 -0 -0 -0 -0 -0 -0 -0
-0 -0 -0 -0 -0 -0 -0 -0 -1 -8 -20 -0 -0 -0 -0 -0 -0 -0 -0 -0 -0 -0 -0 -0 -5 -0 -0 -0 -0 -0 -0 -0 -0 -0 -0 -0 -0 -0 -0 -0 -0 -0 -0 -0
-0 -0 -0 -0 -0 -0 -0 -0 -0 -0 -0 -0 -0 -0 -0 -0 -0 -0 -0 -0 -0 -0 -0 -0 -0 -0 -0 -0 -0 -0 -0 -0 -0 -0 -0 -0 -0 -0 -0 -0 -0 -0 -0 -0
-0 -0 -0 -0 -0 -0 -0 -0 -0 -0 -0 -0 -0 -0 -0 -0 -0 -0 -0 -0 -0 -0 -0 -0 -0 -0 -0 -0 -0 -0 -0 -0 -0 -0 -0 -0 -0 -0 -0 -0 -0 -0 -0 -0
-0 -0 -0 -0 -0 -0 -0 -0 -0 -0 -0 -0 -0 -0 -0 -0 -0 -0 -0 -0 -0 -0 -1 -0 -0 -0 -0 -0 -0 -0 -0 -0 -0 -0 -0 -0 -0 -0 -0 -0 -0 -0 -0 -0
-0 -0 -0 -0 -0 -0 -0 -0 -0 -0 -0 -0 -0 -0 -0 -0 -0 -0 -0 -0 -0 -0 -0 -0 -0 -0 -0 -0 -0 -0 -0 -0 -0 -0 -0 -0 -0 -0 -0 -0 -0 -0 -0 -0
-0 -0 -0 -0 -0 -0 -0 -0 -0 -0 -0 -0 -0 -0 -0 -0 -0 -0 -0 -0 -0 -0 -0 -0 -0 -0 -0 -0 -0 -0 -0 -0 -0 -0 -0 -0 -0 -0 -0 -0 -0 -0 -0 -0
-0 -0 -0 -0 -0 -0 -0 -0 -0 -0 -0 -0 -3 -0 -0 -0 -0 -0 -0 -0 -0 -0 -0 -0 -0 -0 -0 -0 -0 -0 -0 -0 -0 -0 -0 -0 -0 -0 -0 -0 -0 -0 -0 -0
-0 -0 -0 -0 -0 -0 -0 -0 -0 -0 -0 -0 -0 -0 -0 -0 -0 -0 -0 -0 -0 -0 -0 -0 -0 -0 -0 -0 -0 -0 -0 -0 -0 -0 -0 -0 -0 -0 -0 -0 -0 -0 -0 -0
Wind_Speed
18 21 21 22 21 23 16 12 12 13 6 4 4 5 5 13 6 5 9 12 10 8 9 7 7 7 9 10 9 10 13 19 21 21 19 21 21 21 19 21 20 21 24 23
19 20 20 20 20 19 16 13 14 13 5 9 7 7 11 10 9 7 7 7 7 8 9 10 5 9 12 11 9 10 10 12 19 20 20 20 21 19 20 21 22 25 27 23
20 18 20 19 19 19 15 15 15 12 8 11 12 9 9 10 10 10 7 9 9 9 9 8 12 9 12 10 10 13 15 16 16 23 27 22 25 23 21 21 26 30 21 41
20 19 18 17 17 17 14 15 17 16 15 11 11 11 14 9 12 11 9 10 8 8 10 9 10 10 11 11 10 12 13 15 17 25 29 27 30 31 26 23 24 37 42 43
20 19 17 17 16 16 16 17 18 17 20 17 13 11 14 13 11 10 12 12 11 9 11 10 13 9 10 12 10 10 13 18 20 22 29 30 34 35 33 32 37 41 46 47
23 20 19 17 16 15 17 17 19 19 18 16 16 15 16 15 12 13 16 17 13 12 13 17 21 19 16 16 14 11 14 16 20 22 22 27 33 34 32 31 30 31 34 35
26 23 21 20 19 18 19 18 18 19 24 18 18 19 18 18 15 16 18 21 19 19 16 16 18 19 19 16 17 15 17 15 18 24 22 25 28 25 27 27 28 31 37 39
30 27 24 23 22 21 20 19 19 19 25 22 20 20 19 20 20 20 22 20 20 14 15 17 18 19 21 19 19 17 16 15 19 20 20 23 37 28 26 27 28 24 29 31
33 30 27 24 23 21 22 20 20 21 24 25 22 20 19 19 18 18 22 21 16 17 17 17 18 17 19 18 19 21 18 18 17 17 21 23 19 18 17 21 32 22 24 29
33 31 28 26 24 22 22 22 21 22 23 26 22 20 21 19 19 20 20 21 20 21 21 20 20 20 21 19 21 19 17 18 19 19 22 22 16 14 16 26 29 22 26 27
34 32 30 28 25 23 22 25 22 25 25 26 25 25 20 19 21 20 20 19 21 20 21 23 21 23 21 24 23 20 19 19 21 20 23 27 11 13 15 17 19 25 25 28
37 34 31 30 27 24 22 27 23 25 29 27 27 29 29 26 24 26 22 23 20 19 20 23 23 25 24 25 27 18 25 21 23 18 20 16 9 13 9 12 19 23 25 29
36 35 32 28 29 27 25 26 21 24 31 37 39 32 28 26 26 23 28 26 24 23 21 23 25 27 26 28 29 30 22 20 25 26 22 25 22 17 17 19 19 17 23 30
37 35 32 29 28 27 25 27 24 26 25 32 34 25 31 24 24 25 26 27 22 23 24 26 28 30 25 32 33 32 25 20 23 27 28 32 27 20 18 21 20 21 25 27
38 35 31 29 27 25 24 26 26 28 29 28 32 29 27 25 26 25 26 26 25 25 27 30 33 31 33 32 34 34 23 26 27 29 24 27 25 19 18 26 29 29 25 24
34 31 28 26 24 21 21 31 33 29 28 32 36 29 26 24 26 27 27 28 29 27 27 29 29 26 28 34 37 34 29 25 24 31 29 31 32 34 38 38 36 34 25 30
33 30 27 23 21 21 26 26 25 25 24 31 36 34 30 24 21 24 27 27 29 30 31 33 33 30 29 38 38 30 27 23 24 27 30 31 29 30 32 36 42 45 47 44
31 29 25 20 15 14 24 21 18 17 23 26 32 34 31 24 30 28 24 28 28 31 32 31 34 30 31 36 35 28 28 29 32 32 32 36 42 40 38 41 44 46 45 43
31 26 21 14 20 24 20 14 14 18 23 29 31 36 36 25 28 26 25 24 29 25 34 35 30 33 30 30 32 29 24 23 24 24 27 31 34 36 40 40 41 45 45 47
32 24 20 24 20 12 9 19 22 23 27 28 35 30 31 26 28 29 26 27 30 34 32 25 37 37 36 31 28 26 22 20 22 27 31 35 35 31 32 34 35 38 40 43
30 27 25 17 15 18 22 23 25 27 32 30 32 29 28 25 30 29 25 27 26 34 31 30 34 36 30 26 26 25 21 23 24 26 27 26 28 30 33 36 37 38 38 41
30 22 15 17 22 23 25 27 26 30 35 32 30 29 23 22 23 25 25 28 25 33 23 31 38 34 25 20 16 14 16 16 16 16 18 21 25 29 33 36 39 40 41 43
17 21 27 27 27 30 31 34 33 34 30 27 25 24 23 21 22 25 24 27 31 21 30 34 30 20 13 12 10 9 11 12 13 15 17 21 25 28 30 34 36 39 41 41
28 29 35 38 34 36 35 32 29 27 24 21 21 24 26 23 25 22 27 25 24 31 37 34 26 19 14 11 10 10 11 12 15 17 19 22 26 29 31 33 35 37 40 42
29 32 39 37 32 26 24 21 21 21 14 14 17 19 21 23 25 25 24 27 32 32 34 27 21 13 10 8 9 10 11 13 16 19 22 25 27 30 31 32 34 35 38 40
25 30 33 31 27 27 19 16 16 9 12 10 13 19 24 26 24 26 31 31 30 28 22 18 12 7 6 7 8 10 13 16 20 23 25 27 29 30 31 33 32 34 35 38
30 33 33 32 28 25 19 14 13 11 14 17 17 20 22 15 26 30 26 28 22 19 14 10 6 5 6 7 9 12 15 18 21 25 28 29 29 29 30 32 32 33 35 37
Wind_Direction
304 304 305 306 309 307 320 338 336 339 355 348 326 283 332 338 344 343 342 338 345 354 3 6 12 16 20 12 7 358 322 311 304 303 306 301 300 302 304 304 304 306 309 324
295 298 301 302 302 307 316 325 328 335 343 312 289 314 323 322 319 321 326 316 323 343 342 345 352 357 351 354 357 359 345 329 314 309 306 304 298 300 300 302 304 297 296 310
288 294 296 298 298 301 306 318 317 324 305 309 310 290 298 299 309 297 300 321 319 318 316 322 337 340 344 346 346 335 329 326 317 305 304 303 296 297 296 295 296 295 295 274
279 286 291 295 295 299 301 308 309 317 309 283 283 298 322 294 300 297 299 293 276 294 301 302 307 318 328 332 333 331 329 322 316 305 300 299 295 290 291 288 292 286 275 278
272 277 282 287 289 292 290 301 303 307 305 307 293 271 295 289 298 292 293 280 298 258 266 284 318 291 298 303 312 317 320 318 318 312 305 298 292 289 289 287 287 285 280 269
263 268 273 276 275 277 289 293 302 303 301 295 294 283 290 290 288 296 290 298 284 290 290 297 304 306 309 313 311 304 314 315 317 311 317 309 299 293 289 289 289 291 292 296
257 261 265 269 268 265 281 288 294 292 292 287 284 298 295 290 283 286 301 292 290 300 310 310 308 304 303 301 298 301 304 304 312 312 314 305 307 309 303 294 295 291 289 290
253 254 258 262 265 262 272 282 283 286 287 289 285 286 289 296 291 286 289 293 297 304 303 301 302 301 302 296 295 293 299 301 308 309 305 308 303 304 300 300 296 304 296 300
248 250 253 254 260 260 265 270 277 282 287 286 284 283 281 284 289 289 284 289 296 298 297 296 291 294 300 302 305 291 291 295 299 309 311 314 330 328 321 312 292 302 308 305
244 245 247 250 254 257 263 275 263 273 278 284 288 277 281 278 284 289 289 284 283 286 284 286 289 286 296 291 295 296 293 291 283 288 299 310 321 324 320 299 298 310 306 309
240 243 243 245 248 252 259 273 262 263 274 280 281 280 282 283 275 275 289 290 285 282 277 284 283 290 284 284 288 291 288 291 293 293 298 302 323 325 308 316 317 312 309 308
238 239 240 242 243 245 253 269 264 264 268 281 281 277 278 280 282 276 274 279 292 280 284 280 288 289 293 287 287 288 287 284 296 286 295 315 332 331 328 340 335 319 312 309
233 234 236 237 241 242 248 265 261 264 266 273 271 274 276 275 276 281 273 275 281 285 290 291 288 285 293 287 286 287 292 294 290 292 292 292 295 296 299 304 311 318 317 310
231 230 231 234 238 238 243 256 261 259 270 272 276 281 266 278 272 273 275 278 285 283 284 284 284 284 293 287 290 288 292 294 296 291 292 296 297 295 298 305 310 313 314 313
228 227 228 232 235 235 250 257 260 259 263 276 273 279 275 276 269 269 269 273 275 279 278 277 278 284 287 288 289 285 286 286 286 289 300 305 303 313 307 304 303 306 310 310
216 217 221 225 226 231 252 263 260 254 261 270 271 281 281 277 271 266 266 267 270 275 278 281 283 287 288 288 284 286 282 287 287 290 293 294 296 293 293 297 300 301 303 304
211 210 216 213 215 232 254 266 272 243 252 265 270 274 273 274 274 272 267 268 272 273 275 276 281 284 284 283 277 284 298 300 298 296 294 292 294 297 299 298 293 291 290 295
203 199 202 190 207 243 259 277 272 245 249 263 268 270 270 265 265 268 272 268 269 273 276 280 276 284 281 282 289 288 285 284 284 286 287 289 290 292 295 293 293 291 293 297
201 184 171 210 244 251 254 267 266 263 259 260 266 262 266 263 265 268 269 272 271 280 274 273 277 273 274 285 289 291 292 292 293 295 294 295 296 299 297 298 298 295 296 294
168 191 230 245 241 198 236 268 261 263 265 268 264 262 265 261 262 264 266 270 271 275 276 277 274 270 274 277 286 293 295 293 295 295 295 297 299 305 306 305 304 303 303 300
211 228 243 226 193 251 259 258 256 260 265 264 258 255 262 264 259 262 267 269 271 274 274 271 280 282 281 277 270 273 288 292 292 295 299 302 304 307 306 304 303 305 306 304
219 217 209 229 246 256 255 253 261 260 261 265 252 248 255 261 266 266 262 267 269 273 277 276 278 285 289 293 287 282 282 292 298 305 309 311 312 310 306 304 303 303 303 302
188 231 237 240 247 250 248 250 257 260 265 263 251 242 251 258 261 267 267 265 266 275 273 276 280 292 299 295 288 286 291 297 306 312 316 316 316 315 316 312 310 309 307 308
235 236 230 238 245 250 253 252 260 262 267 252 239 245 251 256 251 265 264 267 270 269 269 274 282 280 284 280 279 284 292 303 310 314 318 317 316 316 317 317 316 315 312 309
243 237 237 240 249 256 255 257 259 265 253 230 234 252 261 251 257 259 263 263 265 268 272 279 286 278 264 255 272 290 301 307 312 313 313 314 316 316 317 320 321 320 318 318
246 245 240 243 242 246 244 250 258 239 210 203 251 257 256 255 256 256 251 260 265 275 278 286 283 252 236 263 287 298 304 306 307 308 312 314 316 316 317 319 323 327 327 324
246 244 240 238 244 242 246 246 246 194 194 227 254 252 255 262 257 254 258 261 264 279 283 279 264 251 269 286 297 302 306 308 310 311 312 316 318 318 317 319 324 326 326 323